HORS 4 (RS82S)

Last updated on Wed Feb 05 2025 00:03:01 GMT+0000 (Coordinated Universal Time)

1 61754U 24199V 25035.57023492 .00025750 00000+0 92922-3 0 9990 2 61754 97.3740 265.2303 0010450 279.9746 80.0314 15.28438455 60973
UTC large
Height (km)
Speed (km/s)
/
Latitude / Longitude
Inclination (degrees)
Orbital Period (minutes)
Azimuth
Elevation
Range (km)
Doppler Factor

Next 0 passes for location: London (51.5072 / 0.1276)

Sorry there are no passes over London.